GW6637 Weather Reports


Display with metric or nautical units.
time (UTC)temp
F
wind
direction
speed
MPH
gust
MPH
rain 1hr
in
rain 24hr
in
rain mn
in
humidity
%
barometer
mb
20260502130653 51 147 0.0 0.0 0.00 0.00 0.00 46 1015.7
20260502130150 51 66 2.0 3.0 0.00 0.00 0.00 45 1015.4
20260502123636 50 57 1.0 1.0 0.00 0.00 0.00 45 1015.4
20260502123133 50 80 1.0 1.0 0.00 0.00 0.00 48 1015.5
20260502122629 50 353 3.0 3.0 0.00 0.00 0.00 46 1015.2
20260502122126 50 93 1.0 1.0 0.00 0.00 0.00 47 1015.6
20260502121624 50 95 0.0 0.0 0.00 0.00 0.00 49 1015.6
20260502121121 50 95 1.0 1.0 0.00 0.00 0.00 48 1015.2
20260502120618 50 95 0.0 0.0 0.00 0.00 0.00 49 1015.5
20260502120114 50 92 1.0 1.0 0.00 0.00 0.00 50 1015.3
20260502115613 50 75 0.0 1.0 0.00 0.00 0.00 50 1015.3
20260502115108 50 76 0.0 1.0 0.00 0.00 0.00 48 1015.4
20260502114604 50 77 0.0 0.0 0.00 0.00 0.00 49 1015.3
20260502114102 50 65 1.0 2.0 0.00 0.00 0.00 48 1015.1
20260502113559 49 69 0.0 0.0 0.00 0.00 0.00 51 1015.1
20260502113057 49 47 1.0 2.0 0.00 0.00 0.00 48 1014.9
20260502112555 49 115 0.0 0.0 0.00 0.00 0.00 49 1014.8
20260502112052 50 86 0.0 0.0 0.00 0.00 0.00 52 1015.0
20260502111549 49 83 0.0 0.0 0.00 0.00 0.00 49 1015.2
20260502111047 49 22 1.0 2.0 0.00 0.00 0.00 48 1014.8
20260502110544 49 135 1.0 1.0 0.00 0.00 0.00 48 1014.8
20260502110042 49 259 0.0 0.0 0.00 0.00 0.00 48 1014.7
20260502105539 50 262 1.0 2.0 0.00 0.00 0.00 48 1014.8
20260502105037 49 68 1.0 2.0 0.00 0.00 0.00 49 1014.6
20260502104533 49 151 0.0 1.0 0.00 0.00 0.00 49 1014.8
20260502104031 49 151 0.0 1.0 0.00 0.00 0.00 48 1015.0
20260502103529 49 148 0.0 1.0 0.00 0.00 0.00 47 1015.0
20260502103026 49 107 1.0 1.0 0.00 0.00 0.00 47 1015.0
20260502102522 49 133 0.0 0.0 0.00 0.00 0.00 47 1015.1
20260502102020 49 139 0.0 0.0 0.00 0.00 0.00 46 1014.8
20260502101517 50 139 0.0 0.0 0.00 0.00 0.00 46 1015.1
20260502101016 50 139 0.0 0.0 0.00 0.00 0.00 44 1014.9
20260502100514 51 176 1.0 1.0 0.00 0.00 0.00 43 1015.1
20260502091448 51 277 2.0 3.0 0.00 0.00 0.00 46 1014.5
20260502090946 51 301 2.0 3.0 0.00 0.00 0.00 46 1014.7
20260502090442 51 172 0.0 1.0 0.00 0.00 0.00 47 1014.9
20260502071337 50 129 0.0 0.0 0.00 0.00 0.00 69 1014.5
20260502070835 50 130 0.0 0.0 0.00 0.00 0.00 68 1014.4
20260502070332 50 129 0.0 0.0 0.00 0.00 0.00 69 1014.6
20260502065831 50 130 0.0 0.0 0.00 0.00 0.00 68 1014.3
20260502065329 50 130 0.0 0.0 0.00 0.00 0.00 67 1014.5
20260502064827 50 130 0.0 0.0 0.00 0.00 0.00 66 1014.4
20260502064325 51 129 0.0 0.0 0.00 0.00 0.00 67 1014.4
20260502063821 51 130 0.0 0.0 0.00 0.00 0.00 64 1014.5
20260502063319 51 130 0.0 0.0 0.00 0.00 0.00 64 1014.3
20260502062816 51 116 0.0 0.0 0.00 0.00 0.00 63 1014.5
20260502062314 52 116 0.0 0.0 0.00 0.00 0.00 61 1014.6
20260502061812 52 141 1.0 1.0 0.00 0.00 0.00 59 1014.7
20260502061310 52 139 0.0 1.0 0.00 0.00 0.00 60 1014.9
20260502060805 53 137 0.0 1.0 0.00 0.00 0.00 59 1014.6
20260502060300 53 114 0.0 0.0 0.00 0.00 0.00 58 1014.7
20260502055759 53 118 0.0 1.0 0.00 0.00 0.00 56 1014.8
20260502055256 53 70 1.0 2.0 0.00 0.00 0.00 56 1014.7
20260502054755 53 103 0.0 0.0 0.00 0.00 0.00 60 1014.6
20260502054252 53 76 0.0 1.0 0.00 0.00 0.00 59 1014.7
20260502053750 53 111 0.0 1.0 0.00 0.00 0.00 57 1014.5
20260502053247 53 95 0.0 1.0 0.00 0.00 0.00 56 1014.6
20260502052745 53 134 0.0 0.0 0.00 0.00 0.00 57 1014.5
20260502052243 54 145 0.0 1.0 0.00 0.00 0.00 56 1014.6
20260502051740 54 147 0.0 0.0 0.00 0.00 0.00 56 1014.7
20260502051239 54 130 1.0 1.0 0.00 0.00 0.00 57 1014.6
20260502050735 55 141 0.0 1.0 0.00 0.00 0.00 54 1014.6
20260502050231 55 166 0.0 1.0 0.00 0.00 0.00 52 1014.6
20260502045728 55 275 1.0 1.0 0.00 0.00 0.00 54 1014.6
20260502045225 55 126 0.0 1.0 0.00 0.00 0.00 55 1014.6
20260502044722 56 161 1.0 1.0 0.00 0.00 0.00 53 1014.6
20260502044218 56 177 1.0 2.0 0.00 0.00 0.00 53 1014.5
20260502043715 56 261 1.0 2.0 0.00 0.00 0.00 54 1014.3
20260502043213 56 256 2.0 2.0 0.00 0.00 0.00 54 1014.2
20260502042712 57 168 0.0 1.0 0.00 0.00 0.00 54 1014.2
20260502042210 57 264 2.0 2.0 0.00 0.00 0.00 54 1014.4
20260502041707 57 295 3.0 4.0 0.00 0.00 0.00 53 1014.2
20260502041204 57 221 2.0 2.0 0.00 0.00 0.00 53 1014.2
20260502040701 57 283 3.0 3.0 0.00 0.00 0.00 53 1014.4
20260502040158 57 278 3.0 3.0 0.00 0.00 0.00 54 1014.0
20260502035654 58 272 1.0 1.0 0.00 0.00 0.00 53 1014.2
20260502035151 58 15 1.0 1.0 0.00 0.00 0.00 53 1014.2
20260502034649 58 50 0.0 0.0 0.00 0.00 0.00 55 1014.1
20260502034147 58 167 0.0 1.0 0.00 0.00 0.00 53 1014.1
20260502033645 58 149 0.0 0.0 0.00 0.00 0.00 54 1014.2
20260502033142 58 197 1.0 2.0 0.00 0.00 0.00 53 1013.9
20260502032638 58 169 1.0 1.0 0.00 0.00 0.00 53 1013.8
20260502032135 58 120 0.0 0.0 0.00 0.00 0.00 54 1013.9
20260502031633 58 120 0.0 0.0 0.00 0.00 0.00 53 1013.8
20260502031130 58 73 1.0 1.0 0.00 0.00 0.00 52 1013.8
20260502030629 59 88 1.0 2.0 0.00 0.00 0.00 53 1013.8
20260502030127 59 197 2.0 2.0 0.00 0.00 0.00 53 1013.5
20260502025624 59 103 1.0 1.0 0.00 0.00 0.00 50 1013.5
20260502025122 59 163 0.0 1.0 0.00 0.00 0.00 50 1013.6
20260502024619 59 12 2.0 2.0 0.00 0.00 0.00 50 1013.5
20260502024117 59 231 2.0 3.0 0.00 0.00 0.00 49 1013.7
20260502023615 59 61 0.0 1.0 0.00 0.00 0.00 50 1013.3
20260502023112 59 333 3.0 6.0 0.00 0.00 0.00 50 1013.3
20260502022609 59 25 4.0 6.0 0.00 0.00 0.00 50 1013.3
20260502022106 58 80 1.0 1.0 0.00 0.00 0.00 55 1013.0
20260502021603 58 118 1.0 1.0 0.00 0.00 0.00 55 1013.1
20260502021100 58 65 1.0 1.0 0.00 0.00 0.00 57 1012.7
20260502020557 58 74 1.0 1.0 0.00 0.00 0.00 60 1012.5
20260502020054 58 354 2.0 2.0 0.00 0.00 0.00 60 1012.1
20260502015552 59 110 0.0 0.0 0.00 0.00 0.00 60 1012.3
20260502015048 59 109 0.0 1.0 0.00 0.00 0.00 59 1012.2
20260502014545 58 153 1.0 2.0 0.00 0.00 0.00 59 1012.2
20260502014042 58 123 0.0 0.0 0.00 0.00 0.00 59 1012.2
20260502013537 58 122 1.0 1.0 0.00 0.00 0.00 61 1012.1
20260502013034 58 80 0.0 1.0 0.00 0.00 0.00 60 1012.0
20260502012532 58 68 1.0 1.0 0.00 0.00 0.00 61 1011.9
20260502012029 58 89 0.0 0.0 0.00 0.00 0.00 60 1011.6
20260502011526 58 89 0.0 0.0 0.00 0.00 0.00 60 1011.6
20260502011022 58 90 0.0 0.0 0.00 0.00 0.00 59 1011.7
20260502010520 59 90 0.0 0.0 0.00 0.00 0.00 60 1011.7
20260502010016 59 90 1.0 1.0 0.00 0.00 0.00 58 1011.6
20260502005514 60 89 0.0 0.0 0.00 0.00 0.00 58 1011.4
20260502005011 60 89 0.0 0.0 0.00 0.00 0.00 54 1011.3
20260502004507 61 89 1.0 1.0 0.00 0.00 0.00 56 1011.2
20260502004004 61 90 2.0 2.0 0.00 0.00 0.00 52 1011.0
20260502003501 61 78 0.0 0.0 0.00 0.00 0.00 52 1011.0
20260502002957 62 78 0.0 0.0 0.00 0.00 0.00 49 1011.1
20260502002455 63 77 0.0 1.0 0.00 0.00 0.00 49 1010.9
20260502001952 63 77 1.0 1.0 0.00 0.00 0.00 47 1010.7
20260502001449 63 85 2.0 3.0 0.00 0.00 0.00 47 1010.7
20260502000947 63 92 1.0 1.0 0.00 0.00 0.00 47 1010.8
20260502000446 64 93 0.0 1.0 0.00 0.00 0.00 46 1010.5
20260501235941 64 137 0.0 1.0 0.00 0.00 0.00 45 1010.7
20260501235437 64 120 1.0 1.0 0.00 0.00 0.00 44 1010.3
20260501234932 64 82 0.0 1.0 0.00 0.00 0.00 43 1010.4
20260501234429 64 118 0.0 0.0 0.00 0.00 0.00 44 1010.5
20260501233928 65 119 0.0 0.0 0.00 0.00 0.00 43 1010.0
20260501233425 65 123 1.0 2.0 0.00 0.00 0.00 43 1009.9
20260501232920 65 143 2.0 2.0 0.00 0.00 0.00 42 1009.9
20260501232418 65 120 1.0 2.0 0.00 0.00 0.00 42 1009.8
20260501231915 65 67 3.0 7.0 0.00 0.00 0.00 42 1010.0
20260501231414 66 97 1.0 1.0 0.00 0.00 0.00 42 1010.0
20260501230911 66 133 0.0 1.0 0.00 0.00 0.00 42 1009.9
20260501230410 66 164 0.0 0.0 0.00 0.00 0.00 42 1009.8
20260501225907 66 90 2.0 3.0 0.00 0.00 0.00 41 1010.0
20260501225404 67 142 6.0 8.0 0.00 0.00 0.00 39 1009.9
20260501224900 68 198 1.0 2.0 0.00 0.00 0.00 40 1009.8
20260501224358 68 139 1.0 2.0 0.00 0.00 0.00 39 1009.7
20260501223854 68 87 4.0 6.0 0.00 0.00 0.00 38 1009.9
20260501223350 69 137 3.0 4.0 0.00 0.00 0.00 37 1009.7
20260501222846 69 121 2.0 3.0 0.00 0.00 0.00 37 1009.9
20260501222344 68 128 2.0 2.0 0.00 0.00 0.00 38 1009.9
20260501221840 67 113 5.0 7.0 0.00 0.00 0.00 38 1010.0
20260501221337 67 200 3.0 4.0 0.00 0.00 0.00 39 1010.2
20260501220836 67 86 0.0 1.0 0.00 0.00 0.00 38 1010.2
20260501220333 67 197 3.0 6.0 0.00 0.00 0.00 39 1010.3
20260501215829 67 144 1.0 2.0 0.00 0.00 0.00 38 1010.4
20260501215325 67 119 2.0 3.0 0.00 0.00 0.00 39 1010.2
20260501214821 68 124 4.0 4.0 0.00 0.00 0.00 36 1010.5
20260501214316 67 110 0.0 0.0 0.00 0.00 0.00 40 1010.4
20260501213812 68 99 2.0 2.0 0.00 0.00 0.00 38 1010.4
20260501213309 68 84 8.0 10.0 0.00 0.00 0.00 36 1010.3
20260501212805 69 152 1.0 2.0 0.00 0.00 0.00 36 1010.6
20260501212305 69 149 1.0 2.0 0.00 0.00 0.00 38 1010.6
20260501211759 69 102 4.0 6.0 0.00 0.00 0.00 35 1010.8
20260501211256 69 120 4.0 6.0 0.00 0.00 0.00 36 1010.8
20260501210753 67 163 3.0 6.0 0.00 0.00 0.00 37 1010.5
20260501210249 66 157 2.0 2.0 0.00 0.00 0.00 38 1010.7
20260501205746 66 156 2.0 2.0 0.00 0.00 0.00 37 1010.9
20260501205243 67 79 3.0 3.0 0.00 0.00 0.00 38 1010.9
20260501204740 67 121 3.0 4.0 0.00 0.00 0.00 38 1010.8
20260501204237 69 136 3.0 4.0 0.00 0.00 0.00 35 1011.1
20260501203733 68 142 4.0 6.0 0.00 0.00 0.00 37 1010.8
20260501203230 67 99 4.0 7.0 0.00 0.00 0.00 37 1010.9
20260501202727 67 116 1.0 2.0 0.00 0.00 0.00 38 1011.0
20260501202224 68 120 2.0 2.0 0.00 0.00 0.00 37 1011.2
20260501201721 67 87 1.0 2.0 0.00 0.00 0.00 38 1011.3
20260501201218 67 124 2.0 2.0 0.00 0.00 0.00 37 1011.3
20260501200714 68 133 2.0 2.0 0.00 0.00 0.00 37 1011.3
20260501200212 68 158 1.0 2.0 0.00 0.00 0.00 37 1011.4
20260501195709 68 110 2.0 3.0 0.00 0.00 0.00 36 1011.5
20260501195205 69 204 3.0 4.0 0.00 0.00 0.00 33 1011.5
20260501194701 69 132 2.0 3.0 0.00 0.00 0.00 35 1011.8
20260501194156 69 110 2.0 2.0 0.00 0.00 0.00 36 1011.9
20260501193653 69 150 1.0 1.0 0.00 0.00 0.00 34 1011.8
20260501193152 69 118 2.0 2.0 0.00 0.00 0.00 34 1012.0
20260501192649 70 116 5.0 7.0 0.00 0.00 0.00 32 1012.2
20260501192146 68 134 1.0 1.0 0.00 0.00 0.00 34 1012.1
20260501191644 69 89 3.0 4.0 0.00 0.00 0.00 33 1012.4
20260501191141 69 89 3.0 3.0 0.00 0.00 0.00 36 1012.6
20260501190637 68 74 1.0 2.0 0.00 0.00 0.00 33 1012.7
20260501190137 68 201 5.0 7.0 0.00 0.00 0.00 36 1012.6
20260501185634 68 111 4.0 6.0 0.00 0.00 0.00 36 1012.7
20260501185130 68 115 1.0 1.0 0.00 0.00 0.00 36 1012.8
20260501184627 67 152 1.0 2.0 0.00 0.00 0.00 36 1013.0
20260501184121 68 113 2.0 3.0 0.00 0.00 0.00 35 1013.1
20260501183618 68 89 4.0 6.0 0.00 0.00 0.00 33 1013.2
20260501183114 68 137 3.0 3.0 0.00 0.00 0.00 34 1013.0
20260501182611 67 71 4.0 4.0 0.00 0.00 0.00 34 1013.1
20260501182108 67 191 3.0 4.0 0.00 0.00 0.00 33 1013.2
20260501181605 67 171 1.0 1.0 0.00 0.00 0.00 34 1013.5
20260501181102 66 199 2.0 4.0 0.00 0.00 0.00 37 1013.5
20260501180600 67 176 2.0 4.0 0.00 0.00 0.00 34 1013.6
20260501180055 68 105 2.0 2.0 0.00 0.00 0.00 34 1013.8
20260501175553 66 116 1.0 1.0 0.00 0.00 0.00 37 1013.9
20260501175050 65 188 3.0 4.0 0.00 0.00 0.00 36 1013.8
20260501174547 66 168 6.0 8.0 0.00 0.00 0.00 36 1013.9
20260501174045 66 130 3.0 3.0 0.00 0.00 0.00 39 1013.8
20260501173541 65 84 2.0 3.0 0.00 0.00 0.00 36 1014.1
20260501173038 65 99 3.0 3.0 0.00 0.00 0.00 36 1014.1
20260501172533 64 173 2.0 2.0 0.00 0.00 0.00 37 1014.4
20260501172029 64 104 4.0 6.0 0.00 0.00 0.00 37 1014.4
20260501171526 63 183 1.0 3.0 0.00 0.00 0.00 37 1014.5
20260501171022 64 197 3.0 3.0 0.00 0.00 0.00 34 1014.6
20260501170519 64 127 3.0 3.0 0.00 0.00 0.00 38 1014.6
20260501170016 64 107 3.0 3.0 0.00 0.00 0.00 37 1015.0
20260501165515 64 143 4.0 4.0 0.00 0.00 0.00 36 1014.8
20260501165012 63 154 3.0 4.0 0.00 0.00 0.00 38 1014.7
20260501164509 62 174 2.0 2.0 0.00 0.00 0.00 37 1015.1
20260501164006 63 211 3.0 4.0 0.00 0.00 0.00 38 1015.0
20260501163502 63 144 2.0 2.0 0.00 0.00 0.00 38 1015.1
20260501162958 63 53 4.0 6.0 0.00 0.00 0.00 37 1015.4
20260501162455 63 113 1.0 2.0 0.00 0.00 0.00 43 1015.4
20260501161952 62 203 1.0 3.0 0.00 0.00 0.00 40 1015.6
20260501161449 62 118 2.0 3.0 0.00 0.00 0.00 40 1015.6
20260501160946 62 99 2.0 2.0 0.00 0.00 0.00 42 1015.5
20260501160442 62 129 2.0 3.0 0.00 0.00 0.00 41 1015.4
20260501155940 61 129 1.0 1.0 0.00 0.00 0.00 43 1015.7
20260501155437 61 173 2.0 2.0 0.00 0.00 0.00 42 1015.8
20260501154934 61 106 2.0 3.0 0.00 0.00 0.00 41 1015.9
20260501154431 62 104 2.0 3.0 0.00 0.00 0.00 40 1015.8
20260501153927 61 88 0.0 1.0 0.00 0.00 0.00 41 1016.0
20260501153426 60 130 1.0 2.0 0.00 0.00 0.00 42 1016.0
20260501152921 60 79 2.0 3.0 0.00 0.00 0.00 42 1016.2
20260501152419 59 114 3.0 3.0 0.00 0.00 0.00 45 1016.1
20260501151916 58 177 2.0 2.0 0.00 0.00 0.00 44 1016.1
20260501151412 59 200 3.0 3.0 0.00 0.00 0.00 43 1016.3
20260501150909 59 86 1.0 1.0 0.00 0.00 0.00 46 1016.4
20260501150404 60 103 1.0 1.0 0.00 0.00 0.00 39 1016.3
20260501145901 59 106 1.0 1.0 0.00 0.00 0.00 43 1016.2
20260501145358 60 188 2.0 2.0 0.00 0.00 0.00 43 1016.2
20260501144855 58 140 0.0 0.0 0.00 0.00 0.00 41 1016.2
20260501144350 58 76 3.0 3.0 0.00 0.00 0.00 43 1016.5
20260501143847 58 145 2.0 3.0 0.00 0.00 0.00 43 1016.5
20260501143344 57 111 2.0 3.0 0.00 0.00 0.00 44 1016.6
20260501142840 58 142 2.0 4.0 0.00 0.00 0.00 43 1016.5